Location: Lecco
(45.8566°N, 9.3977°E)
Time: 12:59:06
(UTC+02:00)

Explorer 11/Cluster Stage 4 - Pass Details

Date: 19 August 2020
Orbit: 467 x 1258 km, 28.8° (Epoch: 24 September)

Event Time Altitude Azimuth Distance (km) Brightness Sun altitude
Rises 21:09:08 0° 232° (SW) 3,546 10.3 -8.2°
Reaches altitude 10° 21:12:22 10° 215° (SW) 2,750 9.5 -8.7°
Maximum altitude 21:16:58 19° 173° (S) 2,321 8.7 -9.4°
Enters shadow 21:21:38 11° 134° (SE) 2,993 8.9 -10.1°
Drops below altitude 10° 21:22:02 10° 131° (SE) 3,086 - -10.1°
Sets 21:25:57 0° 116° (ESE) 4,135 - -10.7°
